• In United Kingdom
  • List of Countries
  • For 7 days
  • Water Temperature
  • Satellite Maps
  • Weather Map
  • Weather Widgets
  • user-avatar
    Login

    Hourly Weather Linz

    Today, 24 November, Friday

    Time Temperature Precipitation Wind Pressure Humidity
    00:00 +7°C° 0 mm 1 mps 735 mmHg 73%
    01:00 +8°C° 0 mm 1 mps 735 mmHg 75%
    02:00 +8°C° 0 mm 1 mps 735 mmHg 75%
    03:00 +8°C° 0 mm 1 mps 735 mmHg 75%
    04:00 +8°C° 0 mm 1 mps 735 mmHg 76%
    05:00 +8°C° 0 mm 1 mps 735 mmHg 76%
    06:00 +7°C° 0 mm 1 mps 735 mmHg 77%
    07:00 +7°C° 0 mm 1 mps 735 mmHg 77%
    08:00 +9°C° 0 mm 1 mps 734 mmHg 74%
    09:00 +10°C° 0 mm 1 mps 734 mmHg 72%
    10:00 +11°C° 0 mm 1 mps 734 mmHg 69%
    11:00 +13°C° 0 mm 1 mps 734 mmHg 66%
    12:00 +14°C° 0 mm 1 mps 733 mmHg 64%
    13:00 +15°C° 0 mm 1 mps 733 mmHg 62%
    14:00 +14°C° 0 mm 1 mps 733 mmHg 67%
    15:00 +12°C° 0 mm 1 mps 733 mmHg 72%
    16:00 +11°C° 0 mm 1 mps 733 mmHg 77%
    17:00 +10°C° 0 mm 1 mps 733 mmHg 77%
    18:00 +10°C° 0 mm 1 mps 733 mmHg 77%
    19:00 +9°C° 0 mm 1 mps 733 mmHg 77%
    20:00 +9°C° 0 mm 1 mps 733 mmHg 77%
    21:00 +9°C° 0 mm 1 mps 733 mmHg 77%
    22:00 +9°C° 0 mm 1 mps 733 mmHg 77%
    23:00 +9°C° 0 mm 1 mps 732 mmHg 77%

    Tomorrow, 25 November, Saturday

    Time Temperature Precipitation Wind Pressure Humidity
    00:00 +8°C° 0 mm 1 mps 732 mmHg 76%
    01:00 +8°C° 0 mm 1 mps 732 mmHg 76%
    02:00 +8°C° 0 mm 1 mps 731 mmHg 77%
    03:00 +8°C° 0 mm 1 mps 731 mmHg 78%
    04:00 +8°C° 0 mm 1 mps 730 mmHg 78%
    05:00 +7°C° 0 mm 1 mps 729 mmHg 80%
    06:00 +7°C° 0 mm 1 mps 729 mmHg 81%
    07:00 +6°C° 0 mm 1 mps 728 mmHg 82%
    08:00 +7°C° 0 mm 1 mps 727 mmHg 79%
    09:00 +8°C° 0 mm 1 mps 727 mmHg 76%
    10:00 +10°C° 0 mm 1 mps 726 mmHg 73%
    11:00 +9°C° 0 mm 2 mps 726 mmHg 70%
    12:00 +10°C° 0 mm 2 mps 725 mmHg 68%
    13:00 +12°C° 0 mm 2 mps 725 mmHg 65%
    14:00 +10°C° 0.1 mm 3 mps 726 mmHg 71%
    15:00 +8°C° 0.1 mm 4 mps 726 mmHg 77%
    16:00 +7°C° 0.1 mm 4 mps 727 mmHg 82%
    17:00 +7°C° 0.5 mm 4 mps 728 mmHg 84%
    18:00 +7°C° 0.5 mm 4 mps 729 mmHg 86%
    19:00 +6°C° 0.5 mm 4 mps 729 mmHg 88%
    20:00 +6°C° 0.3 mm 4 mps 730 mmHg 88%
    21:00 +6°C° 0.3 mm 4 mps 731 mmHg 88%
    22:00 +5°C° 0.3 mm 4 mps 731 mmHg 88%
    23:00 +5°C° 0.3 mm 4 mps 731 mmHg 89%

    Day after tomorrow, 26 November, Sunday

    Time Temperature Precipitation Wind Pressure Humidity
    00:00 +5°C° 0.3 mm 3 mps 732 mmHg 89%
    01:00 +4°C° 0.3 mm 3 mps 732 mmHg 89%
    02:00 +4°C° 0.7 mm 3 mps 732 mmHg 90%
    03:00 +5°C° 0.7 mm 2 mps 733 mmHg 91%
    04:00 +4°C° 0.7 mm 2 mps 733 mmHg 91%
    05:00 +4°C° 0.7 mm 2 mps 734 mmHg 91%
    06:00 +4°C° 0.7 mm 2 mps 734 mmHg 91%
    07:00 +4°C° 0.7 mm 2 mps 735 mmHg 90%
    08:00 +3°C° 0.8 mm 2 mps 736 mmHg 88%
    09:00 +2°C° 0.8 mm 3 mps 736 mmHg 87%
    10:00 +2°C° 0.8 mm 3 mps 737 mmHg 85%
    11:00 +2°C° 0.3 mm 3 mps 737 mmHg 85%
    12:00 +1°C° 0.3 mm 4 mps 737 mmHg 85%
    13:00 +1°C° 0.3 mm 4 mps 737 mmHg 85%
    14:00 +1°C° 0.2 mm 4 mps 738 mmHg 85%
    15:00 +1°C° 0.2 mm 4 mps 738 mmHg 85%
    16:00 0°C° 0.2 mm 4 mps 738 mmHg 86%
    17:00 0°C° 0.1 mm 4 mps 739 mmHg 86%
    18:00 -1°C° 0.1 mm 4 mps 740 mmHg 87%
    19:00 0°C° 0.1 mm 3 mps 740 mmHg 88%
    20:00 0°C° 0 mm 3 mps 740 mmHg 88%
    21:00 -1°C° 0 mm 3 mps 741 mmHg 88%
    22:00 -1°C° 0 mm 3 mps 741 mmHg 88%
    23:00 -1°C° 0 mm 3 mps 741 mmHg 89%

    27 November, Monday

    Time Temperature Precipitation Wind Pressure Humidity
    00:00 -1°C° 0 mm 3 mps 741 mmHg 90%
    01:00 -2°C° 0 mm 3 mps 742 mmHg 91%
    02:00 -1°C° 0 mm 3 mps 742 mmHg 91%
    03:00 -1°C° 0 mm 3 mps 742 mmHg 90%
    04:00 -1°C° 0 mm 3 mps 742 mmHg 90%
    05:00 -1°C° 0.1 mm 3 mps 742 mmHg 90%
    06:00 -1°C° 0.1 mm 3 mps 742 mmHg 90%
    07:00 -1°C° 0.1 mm 3 mps 743 mmHg 89%
    08:00 -1°C° 0.1 mm 3 mps 743 mmHg 88%
    09:00 0°C° 0.1 mm 3 mps 743 mmHg 86%
    10:00 0°C° 0.1 mm 3 mps 743 mmHg 85%
    11:00 0°C° 0 mm 3 mps 743 mmHg 83%
    12:00 +1°C° 0 mm 3 mps 742 mmHg 82%
    13:00 +1°C° 0 mm 3 mps 742 mmHg 80%
    14:00 +1°C° 0 mm 3 mps 742 mmHg 82%
    15:00 +1°C° 0 mm 2 mps 741 mmHg 83%
    16:00 +1°C° 0 mm 2 mps 741 mmHg 85%
    17:00 -1°C° 0 mm 2 mps 741 mmHg 87%
    18:00 -2°C° 0 mm 2 mps 741 mmHg 90%
    19:00 -3°C° 0 mm 2 mps 742 mmHg 92%
    20:00 -3°C° 0 mm 2 mps 741 mmHg 91%
    21:00 -3°C° 0 mm 2 mps 741 mmHg 90%
    22:00 -3°C° 0 mm 2 mps 741 mmHg 89%
    23:00 -2°C° 0 mm 1 mps 741 mmHg 88%

    28 November, Tuesday

    Time Temperature Precipitation Wind Pressure Humidity
    00:00 -2°C° 0 mm 1 mps 740 mmHg 87%
    01:00 -2°C° 0 mm 1 mps 740 mmHg 85%
    02:00 -2°C° 0 mm 1 mps 740 mmHg 83%
    03:00 -2°C° 0 mm 1 mps 739 mmHg 82%
    04:00 -2°C° 0 mm 1 mps 739 mmHg 80%
    05:00 -1°C° 0 mm 1 mps 738 mmHg 79%
    06:00 -1°C° 0 mm 1 mps 738 mmHg 77%
    07:00 -1°C° 0 mm 1 mps 738 mmHg 75%
    08:00 0°C° 0 mm 1 mps 737 mmHg 71%
    09:00 +2°C° 0 mm 1 mps 736 mmHg 67%
    10:00 +3°C° 0 mm 1 mps 736 mmHg 63%
    11:00 +4°C° 0 mm 1 mps 735 mmHg 62%
    12:00 +5°C° 0 mm 1 mps 734 mmHg 61%
    13:00 +7°C° 0 mm 1 mps 733 mmHg 60%
    14:00 +5°C° 0 mm 1 mps 733 mmHg 64%
    15:00 +4°C° 0 mm 1 mps 732 mmHg 69%
    16:00 +2°C° 0 mm 0 mps 732 mmHg 73%
    17:00 +3°C° 0 mm 1 mps 732 mmHg 73%
    18:00 +2°C° 0 mm 1 mps 731 mmHg 73%
    19:00 +2°C° 0 mm 1 mps 731 mmHg 73%
    20:00 +2°C° 0 mm 1 mps 731 mmHg 74%
    21:00 +1°C° 0 mm 1 mps 731 mmHg 74%
    22:00 +1°C° 0 mm 1 mps 730 mmHg 75%
    23:00 +1°C° 0 mm 1 mps 730 mmHg 74%

    29 November, Wednesday

    Time Temperature Precipitation Wind Pressure Humidity
    00:00 +1°C° 0 mm 1 mps 730 mmHg 74%
    01:00 +1°C° 0 mm 1 mps 730 mmHg 73%
    02:00 +1°C° 0 mm 1 mps 729 mmHg 72%
    03:00 +1°C° 0 mm 1 mps 729 mmHg 71%
    04:00 +1°C° 0 mm 1 mps 729 mmHg 70%
    05:00 +1°C° 0 mm 1 mps 729 mmHg 70%
    06:00 +1°C° 0 mm 1 mps 729 mmHg 69%
    07:00 +1°C° 0 mm 1 mps 729 mmHg 69%
    08:00 +2°C° 0 mm 1 mps 729 mmHg 67%
    09:00 +3°C° 0 mm 1 mps 729 mmHg 65%
    10:00 +4°C° 0 mm 1 mps 729 mmHg 63%
    11:00 +5°C° 0 mm 1 mps 728 mmHg 64%
    12:00 +5°C° 0 mm 1 mps 728 mmHg 64%
    13:00 +6°C° 0 mm 1 mps 728 mmHg 65%
    14:00 +5°C° 0 mm 1 mps 728 mmHg 69%
    15:00 +5°C° 0 mm 1 mps 728 mmHg 73%
    16:00 +3°C° 0 mm 0 mps 728 mmHg 77%
    17:00 +4°C° 0.1 mm 1 mps 728 mmHg 80%
    18:00 +3°C° 0.1 mm 1 mps 729 mmHg 83%
    19:00 +3°C° 0.1 mm 1 mps 729 mmHg 86%
    20:00 +3°C° 0.3 mm 1 mps 730 mmHg 88%
    21:00 +2°C° 0.3 mm 2 mps 730 mmHg 90%
    22:00 +2°C° 0.3 mm 2 mps 730 mmHg 92%
    23:00 +2°C° 0.2 mm 2 mps 731 mmHg 92%
    Show more